Weather History for Morrisville, VT

Change the Weather History Date:

Monday, February 24, 2014

  Actual Average Record
Temperature  
Mean Temperature 22 °F 21 °F  
Max Temperature 29 °F 33 °F 39 °F (2011)
Min Temperature 14 °F 10 °F -9 °F (2011)
Degree Days  
Heating Degree Days 43 44  
Month to date heating degree days 1133 1126  
Since 1 July heating degree days 5828 5788  
Cooling Degree Days 0 0  
Month to date cooling degree days 0 0  
Year to date cooling degree days 0 0  
Moisture  
Dew Point 8 °F    
Average Humidity 50    
Maximum Humidity 61    
Minimum Humidity 39    
Precipitation  
Precipitation T in 0.07 in 0.06 in (1998)
Month to date precipitation 2.16 1.50  
Year to date precipitation 4.57 4.04  
Sea Level Pressure  
Sea Level Pressure 29.83 in    
Wind  
Wind Speed 7 mph (WNW)    
Max Wind Speed 17 mph    
Max Gust Speed 26 mph    
Visibility 6 miles    
Events Snow    
T = Trace of Precipitation, MM = Missing Value Source: NWS Daily Summary

Daily Weather History Graph

Daily Weather History Graph

Search for Another Location

Airport:

Trip Planner

Search our weather history database for the weather conditions in past years. The results will help you decide how hot, cold, wet, or windy it might be!

Date:

Astronomy

Feb. 24, 2014 Rise Set
Actual Time 6:36 AM EST 5:31 PM EST
Civil Twilight 6:06 AM EST 6:01 PM EST
Nautical Twilight 5:33 AM EST 6:34 PM EST
Astronomical Twilight 4:59 AM EST 7:08 PM EST
Moon 2:39 AM EST (2/24) 12:22 PM EST (2/24)
Length of Visible Light 11h 54m
Length of Day
10h 55m
Waning Crescent, 28% of the Moon is Illuminated
Feb 24
Waning Crescent
Mar 1
New
Mar 8
First Quarter
Mar 16
Full
Mar 23
Last Quarter

Hourly Weather History & Observations

Time (EST) Temp. Windchill Dew Point Humidity Pressure Visibility Wind Dir Wind Speed Gust Speed Precip Events Conditions
12:54 AM 28.0 °F 20.8 °F 10.9 °F 49% 29.81 in 10.0 mi NW 6.9 mph 16.1 mph N/A   Scattered Clouds
1:54 AM 27.0 °F 19.5 °F 10.9 °F 51% 29.81 in 10.0 mi NNW 6.9 mph - N/A   Overcast
2:54 AM 25.0 °F 18.1 °F 12.9 °F 60% 29.80 in 9.0 mi Variable 5.8 mph - 0.00 in   Overcast
3:04 AM 25.0 °F 17.1 °F 12.0 °F 58% 29.77 in 10.0 mi West 6.9 mph - N/A   Mostly Cloudy
3:18 AM 24.1 °F 17.0 °F 10.9 °F 57% 29.77 in 10.0 mi WSW 5.8 mph - N/A   Scattered Clouds
3:54 AM 24.1 °F 16.0 °F 9.0 °F 53% 29.80 in 10.0 mi WSW 6.9 mph - N/A   Mostly Cloudy
4:54 AM 23.0 °F - 8.1 °F 53% 29.81 in 10.0 mi Calm Calm - N/A   Overcast
5:54 AM 21.9 °F 17.2 °F 6.1 °F 51% 29.81 in 10.0 mi WNW 3.5 mph - N/A   Overcast
6:54 AM 19.9 °F 14.9 °F 7.0 °F 57% 29.81 in 10.0 mi Variable 3.5 mph - N/A   Overcast
7:54 AM 21.9 °F 15.7 °F 6.1 °F 51% 29.81 in 10.0 mi Variable 4.6 mph - N/A   Overcast
8:54 AM 21.9 °F 13.4 °F 9.0 °F 58% 29.80 in 10.0 mi Variable 6.9 mph - N/A   Overcast
9:41 AM 21.9 °F 12.5 °F 9.0 °F 58% 29.78 in 2.0 mi West 8.1 mph 16.1 mph 0.00 in Snow Light Snow
9:49 AM 21.2 °F 12.6 °F 8.6 °F 58% 29.78 in 7.0 mi Variable 6.9 mph - 0.00 in Snow Light Snow
9:54 AM 21.9 °F 11.7 °F 8.1 °F 55% 29.81 in 8.0 mi West 9.2 mph - 0.00 in   Overcast
10:11 AM 21.9 °F 13.4 °F 10.0 °F 60% 29.78 in 1.8 mi West 6.9 mph - 0.00 in Snow Light Snow
10:17 AM 21.9 °F 14.5 °F 9.0 °F 58% 29.78 in 3.0 mi Variable 5.8 mph - 0.00 in Snow Light Snow
10:54 AM 21.9 °F 15.7 °F 3.0 °F 44% 29.81 in 10.0 mi Variable 4.6 mph - 0.00 in   Overcast
11:54 AM 21.9 °F 11.7 °F 1.9 °F 42% 29.80 in 10.0 mi WSW 9.2 mph 17.3 mph N/A   Overcast
12:54 PM 21.0 °F 13.4 °F 7.0 °F 55% 29.79 in 4.0 mi Variable 5.8 mph - 0.00 in Snow Light Snow
1:54 PM 21.9 °F 9.2 °F 3.9 °F 46% 29.78 in 9.0 mi WSW 13.8 mph 21.9 mph 0.00 in   Overcast
2:54 PM 21.9 °F 13.4 °F 7.0 °F 53% 29.79 in 5.0 mi Variable 6.9 mph 18.4 mph 0.00 in Snow Light Snow
3:54 PM 19.9 °F 11.1 °F 7.0 °F 57% 29.81 in 5.0 mi Variable 6.9 mph 19.6 mph 0.00 in   Overcast
4:11 PM 19.9 °F 8.6 °F 8.1 °F 60% 29.77 in 5.0 mi NNW 10.4 mph 18.4 mph 0.00 in Snow Light Snow
4:32 PM 19.0 °F 6.8 °F 8.1 °F 62% 29.78 in 2.5 mi NW 11.5 mph 19.6 mph 0.00 in Snow Light Snow
4:38 PM 19.0 °F 12.3 °F 8.1 °F 62% 29.78 in 5.0 mi NW 4.6 mph 16.1 mph 0.00 in   Haze
4:54 PM 19.0 °F 7.5 °F 6.1 °F 57% 29.83 in 10.0 mi NW 10.4 mph 17.3 mph 0.00 in   Overcast
5:23 PM 18.0 °F 6.1 °F 7.0 °F 62% 29.81 in 2.0 mi NW 10.4 mph - 0.00 in Snow Light Snow
5:44 PM 18.0 °F 8.7 °F 7.0 °F 62% 29.81 in 6.0 mi NW 6.9 mph - 0.00 in Snow Light Snow
5:54 PM 18.0 °F 6.9 °F 7.0 °F 62% 29.86 in 5.0 mi NW 9.2 mph 18.4 mph 0.00 in Snow Light Snow
6:54 PM 17.1 °F 10.0 °F 6.1 °F 62% 29.90 in 7.0 mi Variable 4.6 mph - 0.00 in   Overcast
7:54 PM 18.0 °F 6.9 °F 3.0 °F 52% 29.90 in 10.0 mi West 9.2 mph - N/A   Overcast
8:24 PM 17.1 °F 5.8 °F 6.1 °F 62% 29.87 in 3.0 mi WNW 9.2 mph - 0.00 in Snow Light Snow
8:33 PM 17.1 °F 7.6 °F 7.0 °F 65% 29.87 in 2.5 mi WNW 6.9 mph - 0.00 in Snow Light Snow
8:41 PM 17.1 °F 11.7 °F 7.0 °F 65% 29.87 in 4.0 mi Variable 3.5 mph - 0.00 in Snow Light Snow
8:54 PM 17.1 °F 10.0 °F 7.0 °F 65% 29.92 in 9.0 mi Variable 4.6 mph - 0.00 in   Overcast
9:54 PM 17.1 °F 10.0 °F 6.1 °F 62% 29.92 in 10.0 mi NNW 4.6 mph - 0.00 in   Overcast
10:28 PM 17.1 °F 5.8 °F 7.0 °F 65% 29.89 in 3.0 mi NW 9.2 mph - 0.00 in Snow Light Snow
10:34 PM 16.0 °F 7.4 °F 8.1 °F 71% 29.89 in 1.8 mi North 5.8 mph - 0.00 in Snow Light Snow
10:48 PM 15.8 °F 5.1 °F 10.4 °F 79% 29.90 in 1.0 mi North 8.1 mph - 0.00 in Snow Light Snow
10:49 PM 16.0 °F 6.3 °F 10.0 °F 77% 29.94 in 1.0 mi NNW 6.9 mph - 0.00 in Snow Light Snow
11:08 PM 15.1 °F 7.7 °F 9.0 °F 77% 29.90 in 1.2 mi NNW 4.6 mph - 0.00 in Snow Light Snow
11:22 PM 15.1 °F 2.5 °F 8.1 °F 74% 29.90 in 1.0 mi NW 10.4 mph - 0.00 in Snow Light Snow
11:37 PM 15.1 °F 2.5 °F 8.1 °F 74% 29.90 in 0.8 mi NW 10.4 mph 21.9 mph 0.00 in Snow Light Snow
11:54 PM 14.0 °F -0.2 °F 7.0 °F 74% 29.95 in 1.0 mi NW 12.7 mph 19.6 mph 0.00 in Snow Light Snow